Peoria, IL

10:32 PM CDT on October 20, 2019 (GMT -0500)
Greater Peoria Regional

Weather History for KPIA - August, 2019

Change the Weather History Date:

Sunday, August 18, 2019

  Actual Average Record
Temperature  
Mean Temperature 78 °F 74 °F  
Max Temperature 85 °F 84 °F 106 °F (1936)
Min Temperature 71 °F 64 °F 45 °F (1963)
Degree Days  
Heating Degree Days 0 0  
Month to date heating degree days 0 0  
Since 1 June heating degree days 5 19  
Since 1 July heating degree days 0 1  
Cooling Degree Days 13 9  
Month to date cooling degree days 187 171  
Year to date cooling degree days 899 802  
Since 1 June cooling degree days 818 721  
Growing Degree Days 28 (Base 50)    
Moisture  
Dew Point 67 °F    
Average Humidity 73    
Maximum Humidity 90    
Minimum Humidity 55    
Precipitation  
Precipitation 0.00 in 0.11 in 1.31 in (1975)
Month to date precipitation 2.82 1.87  
Year to date precipitation 32.50 23.58  
Snow  
Snow 0.00 in 0.00 in 0.00 in ()
Month to date snowfall 0.0 0.0  
Since 1 June snowfall 0.0 0.0  
Since 1 July snowfall 0.0 0.0  
Snow Depth 0.00 in    
Sea Level Pressure  
Sea Level Pressure 29.85 in    
Wind  
Wind Speed 6 mph (SSW)    
Max Wind Speed 15 mph    
Max Gust Speed -    
Visibility 10 miles    
Events      
T = Trace of Precipitation, MM = Missing Value Source: NWS Daily Summary

Daily Weather History Graph

Daily Weather History Graph

Search for Another Location

Airport or City:

Astronomy

Aug. 18, 2019 Rise Set
Actual Time 6:11 AM CDT 7:52 PM CDT
Civil Twilight 5:42 AM CDT 8:21 PM CDT
Nautical Twilight 5:07 AM CDT 8:56 PM CDT
Astronomical Twilight 4:29 AM CDT 9:34 PM CDT
Moon 9:46 PM CDT (8/18) 8:57 AM CDT (8/18)
Length of Visible Light 14h 38m
Length of Day
13h 40m
Waning Gibbous, 91% of the Moon is Illuminated
Aug 18
Waning Gibbous
Aug 23
Last Quarter
Aug 30
New
Sep 5
First Quarter
Sep 13
Full

Hourly Weather History & Observations

Time (CDT) Temp. Heat Index Dew Point Humidity Pressure Visibility Wind Dir Wind Speed Gust Speed Precip Events Conditions
12:54 AM - - - N/A% 29.86 in - North - - N/A   Unknown
1:54 AM - - - N/A% 29.84 in - North - - N/A   Unknown
2:54 AM - - - N/A% 29.81 in - North - - N/A   Unknown
3:54 AM - - - N/A% 29.81 in - North - - N/A   Unknown
4:54 AM - - - N/A% 29.79 in - North - - N/A   Unknown
5:04 AM - - - N/A% 29.79 in 10.0 mi South 11.5 mph - N/A   Mostly Cloudy
5:54 AM - - - N/A% 29.81 in - North - - N/A   Unknown
6:16 AM - - - N/A% 29.81 in 10.0 mi SSW 8.1 mph - N/A   Clear
6:54 AM - - - N/A% 29.82 in 10.0 mi SSW 8.1 mph - N/A   Clear
6:59 AM - - - N/A% 29.82 in 10.0 mi SSW 10.4 mph - N/A   Clear
7:54 AM - - - N/A% 29.85 in 10.0 mi SW 9.2 mph - N/A   Mostly Cloudy
8:54 AM - - - N/A% 29.89 in 10.0 mi North - - N/A   Clear
9:54 AM - - - N/A% 29.90 in 10.0 mi NW 4.6 mph - N/A   Clear
10:54 AM - - - N/A% 29.91 in 10.0 mi Calm Calm - N/A   Clear
11:54 AM 80.1 °F 81.9 °F 64.9 °F 60% 29.83 in 10.0 mi SSE 10.4 mph - N/A   Clear
12:54 PM 80.1 °F 81.7 °F 64.0 °F 58% 29.82 in 10.0 mi South 13.8 mph - N/A   Clear
1:54 PM 79.0 °F - 66.9 °F 66% 29.84 in 10.0 mi South 15.0 mph - N/A   Clear
2:54 PM 81.0 °F 83.8 °F 68.0 °F 65% 29.86 in 10.0 mi SSW 15.0 mph - N/A   Clear
3:54 PM 82.9 °F 85.4 °F 66.9 °F 58% 29.87 in 10.0 mi SW 8.1 mph - N/A   Clear
4:54 PM 84.0 °F 87.8 °F 69.1 °F 61% 29.87 in 10.0 mi Variable 5.8 mph - N/A   Clear
5:54 PM 84.0 °F 86.3 °F 66.0 °F 55% 29.86 in 10.0 mi SW 9.2 mph - N/A   Clear
6:54 PM 82.9 °F 85.4 °F 66.9 °F 58% 29.86 in 10.0 mi WSW 4.6 mph - N/A   Clear
7:54 PM 79.0 °F - 66.9 °F 66% 29.88 in 10.0 mi WSW 5.8 mph - N/A   Clear
8:54 PM 75.9 °F - 68.0 °F 76% 29.90 in 10.0 mi Calm Calm - N/A   Partly Cloudy
9:54 PM 73.9 °F - 68.0 °F 82% 29.92 in 10.0 mi Calm Calm - N/A   Mostly Cloudy
10:54 PM 73.9 °F - 69.1 °F 85% 29.92 in 10.0 mi Calm Calm - N/A   Overcast
11:54 PM 72.0 °F - 68.0 °F 87% 29.92 in 10.0 mi Calm Calm - N/A   Partly Cloudy